Карточка аэропорта USPP

Внимание!
Информация на этой странице в стадии наполнения.
Если вы не увидели какой-то информации, или заметили неточность - пожалуйста сообщите нам!
Спасибо!
Команда RU-STAFF
Название аэропортаБольшое Савино
Название аэропорта (англ.)Bolshoe Savino
Превышение404 ft. (123.1 m.)
Координаты57°55.866', 56°1.6019999999999'
Высота перехода1200m
Эшелон переходаQFE>749:FL60; 749>QFE>722:FL70; 722>QFE: FL80;
Коды ответчика5610-5617
Зона ОрВДЕкатеринбург РПИ (USSV)
Данные METARUSPP 020500Z 00000MPS CAVOK M23/M25 Q1051 R21/820155 TEMPO 2200 -SN FU BKN004 RMK QFE777
Проноз погоды (TAF)USPP 020155Z 0203/0303 10003G09MPS 6000 -SN SCT016 TEMPO 0203/0206 0500 -SN FZFG VV002 BECMG 0213/0215 14003G08MPS
NOTAMshow/hide NOTAM
AWOS   TABLE

Информация о ВПП

ВПП Длина ВПП (м.) Покрытие Курс ВПП Частота ILS
033204Железобетон31 
213204Железобетон211109.9

Диспетчерские позиции

Позывной Наименование органа УВД Частота
USPP_APPПермь-Подход127.100
USPP_R_APPПермь-Круг121.700
USPP_TWRПермь-Старт124.000



Спутниковое изображение